GFSNIL_sfc_thetae_000.txt.gz
Theta_e
355 350 351 352 347 344 344 346 350 349 349 348 348 348 348 345 344 344 342 340 341 340
355 353 352 353 352 345 353 343 346 347 347 348 347 347 348 343 342 341 341 341 340 335
352 352 353 352 350 350 351 350 348 347 346 346 345 345 343 343 340 341 339 339 339 339
347 348 350 348 348 349 352 351 349 347 345 344 342 344 342 342 342 337 339 340 337 336
349 349 349 348 348 350 349 350 348 347 345 344 342 342 340 339 340 338 336 337 336 334
348 347 348 349 349 349 348 346 346 346 343 342 342 341 341 339 338 338 337 337 334 333
347 348 347 349 350 348 348 347 347 345 344 342 341 341 339 338 337 336 336 336 334 332
349 349 349 348 348 347 347 346 347 344 343 343 341 336 341 338 338 336 334 335 333 332
348 347 346 348 348 347 347 348 345 343 342 342 337 329 332 333 336 335 333 331 332 332
347 346 347 347 347 347 348 346 345 343 342 340 340 324 326 330 331 332 331 332 332 329
346 345 347 347 346 347 347 345 342 341 341 340 336 322 321 325 331 331 332 333 331 329
345 345 346 345 345 347 346 343 342 341 340 337 337 321 319 322 330 329 329 333 331 331
347 347 346 346 344 342 347 341 336 336 339 333 339 319 318 323 322 322 325 330 331 323
348 350 350 350 344 343 338 336 338 338 337 338 335 330 320 317 324 323 326 323 323 329

GFSNIL_sfc_thetae_003.txt.gz
Theta_e
332 331 334 338 333 328 329 332 334 332 335 334 336 336 336 333 332 333 330 329 329 328
335 334 335 334 332 331 335 333 333 333 334 335 336 336 335 334 332 330 329 329 329 327
339 336 335 334 332 333 331 335 333 334 335 335 334 334 333 330 330 329 329 329 328 327
337 336 336 334 333 334 336 336 335 335 334 333 333 334 332 330 331 330 329 329 327 327
331 334 334 333 333 333 332 333 333 332 332 334 334 333 332 329 331 329 327 326 325 325
334 333 332 333 333 333 332 331 331 332 332 331 332 332 332 332 331 328 329 326 326 325
336 335 334 334 334 334 333 332 334 334 332 332 332 331 332 331 329 328 328 329 327 325
336 336 336 335 336 334 333 334 334 333 332 332 334 334 329 329 328 327 327 327 327 326
339 337 336 335 335 333 333 333 334 330 330 330 333 326 329 327 323 325 324 323 324 325
337 336 336 336 336 336 334 331 329 330 331 329 329 325 324 327 321 321 322 323 323 323
336 336 336 336 335 335 332 330 330 330 328 329 330 325 322 324 320 321 323 323 324 323
336 335 335 336 335 334 333 331 331 331 329 328 327 319 319 319 320 321 319 322 323 323
337 336 336 337 335 334 332 331 328 324 328 327 323 320 318 318 319 313 316 320 321 319
339 338 339 338 335 331 330 322 322 326 327 327 322 321 316 314 316 319 318 316 316 315

GFSNIL_sfc_thetae_006.txt.gz
Theta_e
329 327 327 330 330 324 326 330 331 330 331 331 331 332 332 331 329 329 328 327 326 325
329 332 333 332 329 326 330 330 330 331 331 331 333 331 331 330 332 328 327 327 327 324
331 332 332 331 329 331 329 330 329 330 330 331 331 331 329 328 328 327 326 327 326 325
334 332 331 330 330 330 330 332 333 332 332 330 330 331 330 329 328 327 326 327 326 325
336 333 331 330 330 330 331 330 329 330 330 330 331 330 329 329 329 327 325 325 324 324
329 329 330 330 330 330 329 328 328 327 326 328 328 328 329 328 329 327 327 325 323 323
328 328 330 330 330 330 329 328 328 327 329 330 329 328 328 328 328 327 326 325 324 324
331 331 330 330 331 330 330 330 329 330 330 329 329 331 330 328 327 325 323 325 325 325
333 332 332 333 332 330 330 329 330 330 329 327 329 328 327 325 322 322 321 321 321 322
334 333 334 334 331 330 330 328 329 330 327 327 327 325 323 328 320 318 318 318 319 321
334 333 334 332 331 330 330 331 330 327 327 327 326 323 322 324 319 318 318 319 320 319
335 333 332 330 330 332 330 328 327 328 326 324 326 321 318 319 318 317 316 315 318 319
334 333 331 332 332 333 331 330 329 326 325 323 324 319 316 317 317 313 315 316 317 317
334 333 332 333 333 330 328 324 323 325 325 325 322 321 314 313 314 316 314 313 313 312

GFSNIL_sfc_thetae_009.txt.gz
Theta_e
325 324 324 325 326 325 327 329 329 329 329 328 329 330 329 328 328 327 327 325 324 323
325 325 325 328 329 324 325 330 329 329 329 329 330 330 328 328 327 327 327 325 324 323
327 328 330 330 327 326 328 328 328 328 329 328 330 329 326 326 327 325 325 325 324 323
328 330 330 329 328 328 328 327 328 327 328 329 328 327 327 327 327 325 324 324 324 324
330 330 329 328 328 327 327 329 331 330 329 328 328 328 328 327 328 326 324 324 324 324
331 331 330 330 329 328 328 328 327 327 326 325 325 327 326 327 327 326 326 325 323 322
332 333 332 332 330 329 328 327 327 326 325 326 327 327 327 326 325 325 326 325 323 322
333 332 332 332 331 330 330 330 329 327 327 328 329 330 327 326 327 325 324 323 323 323
332 330 330 331 330 330 330 330 330 327 328 327 330 327 328 330 324 322 321 319 319 319
333 331 331 332 331 330 330 330 329 327 327 327 327 324 324 328 322 319 317 316 316 318
333 333 332 331 331 330 330 329 328 327 328 326 328 321 322 325 323 318 317 317 318 316
334 332 331 329 330 332 329 329 328 327 325 326 328 323 320 321 319 317 316 315 315 316
333 331 329 330 331 330 330 329 328 327 327 324 325 319 316 316 317 314 312 315 317 316
331 331 330 330 329 330 328 325 324 325 324 324 322 320 314 313 314 313 314 313 312 311

GFSNIL_sfc_thetae_012.txt.gz
Theta_e
338 332 332 332 329 329 331 334 335 334 334 331 333 334 335 334 333 333 333 331 329 330
332 328 329 329 330 330 332 333 333 333 333 332 333 335 334 333 333 333 333 332 331 329
330 328 328 328 330 328 329 332 333 332 332 333 333 334 333 332 332 332 331 330 330 330
328 328 329 330 332 330 330 331 332 332 332 332 332 333 332 331 332 331 331 330 330 329
330 330 330 331 332 331 331 330 331 332 332 332 333 333 332 332 333 332 330 331 330 330
330 330 331 332 331 330 331 330 332 333 333 332 332 331 332 332 331 331 331 331 330 329
331 331 332 332 331 331 330 330 331 332 331 330 329 330 332 332 331 330 330 331 330 329
334 333 333 332 332 331 330 331 332 332 330 330 330 331 332 332 331 331 331 330 329 328
335 334 334 334 333 332 331 331 330 330 330 330 331 328 328 332 332 332 329 328 328 326
332 333 333 333 332 332 331 332 331 331 331 331 332 325 324 327 332 329 326 325 324 323
333 332 332 333 333 332 331 331 330 330 331 330 332 322 321 325 329 328 326 324 323 322
334 333 334 333 331 332 332 331 331 333 330 328 330 321 320 323 328 325 325 323 322 320
336 337 334 333 332 332 332 332 332 329 329 325 330 322 318 320 325 323 321 320 322 318
335 333 332 331 333 332 330 328 328 328 328 329 329 327 316 313 323 321 319 319 318 318

GFSNIL_sfc_thetae_015.txt.gz
Theta_e
361 356 354 353 348 347 346 343 347 347 348 348 345 345 345 343 343 344 342 343 341 336
360 358 354 352 349 347 348 343 346 347 347 345 342 344 346 342 343 343 343 342 343 339
356 352 355 351 344 346 346 345 346 346 344 343 343 343 345 341 342 342 341 340 342 341
353 351 347 347 344 340 345 344 344 344 343 343 343 343 343 343 342 340 342 342 341 341
351 343 347 334 341 343 341 342 343 343 342 342 341 343 342 341 339 340 340 340 341 340
348 342 340 341 338 340 341 339 340 340 340 339 340 342 343 341 340 340 339 340 340 339
349 346 342 336 336 333 334 336 337 337 339 340 341 342 341 339 340 341 340 340 340 340
349 347 343 339 336 334 332 333 334 335 337 339 336 337 339 339 340 341 340 340 340 341
348 343 342 341 340 337 333 335 335 334 335 335 335 329 328 335 340 341 340 339 340 341
347 342 342 341 339 337 331 331 336 336 337 337 340 326 325 329 338 340 340 341 339 337
345 343 342 342 339 338 338 330 333 337 337 338 340 325 322 326 336 339 334 336 337 335
345 343 341 340 336 335 337 336 339 337 337 340 341 321 320 326 336 335 334 336 334 332
346 344 341 337 336 339 340 338 336 338 339 333 340 323 317 327 335 334 329 336 332 319
344 342 337 337 338 340 338 336 333 336 338 340 335 333 317 314 334 330 330 329 328 328

GFSNIL_sfc_thetae_018.txt.gz
Theta_e
367 361 359 361 351 347 344 346 354 354 350 351 351 351 347 343 343 344 343 344 344 337
367 365 361 364 361 351 353 346 352 351 350 350 351 348 347 342 344 343 344 343 344 341
362 364 364 364 360 357 354 352 350 350 349 349 348 347 348 343 344 343 338 338 342 343
361 361 363 361 358 357 355 354 350 351 349 347 345 346 347 344 342 341 342 343 342 342
363 364 359 361 359 355 353 352 350 348 349 346 345 346 344 341 340 341 340 341 342 341
362 360 361 360 355 353 349 349 346 346 345 343 344 344 345 345 343 341 341 341 341 340
362 361 356 359 353 349 344 345 343 342 338 340 343 344 344 344 343 342 341 342 342 342
362 361 358 356 352 348 344 342 344 337 330 332 338 340 343 343 342 341 342 343 343 343
361 359 357 354 351 347 347 344 334 332 333 332 334 331 330 339 340 342 343 342 343 342
361 358 355 352 349 347 345 342 340 338 341 336 338 327 326 330 339 341 344 342 342 341
359 354 351 348 346 347 342 340 339 340 343 338 338 326 324 328 341 342 343 343 342 340
357 353 349 347 343 344 342 339 336 340 342 339 337 323 321 328 339 340 341 341 339 337
356 353 349 348 346 345 342 338 337 339 341 335 341 323 319 325 338 337 335 339 338 325
355 353 350 349 347 341 337 338 338 342 344 344 340 340 316 316 338 334 336 334 331 336

GFSNIL_sfc_thetae_021.txt.gz
Theta_e
374 361 359 363 355 348 346 349 365 357 354 351 352 351 351 344 343 347 342 343 344 338
372 371 361 367 367 355 360 348 353 356 353 352 350 351 350 343 345 345 346 346 346 340
371 372 372 371 370 365 363 357 359 354 352 351 351 350 350 347 348 346 342 338 346 345
369 368 371 367 368 367 366 363 358 356 355 351 349 349 351 349 347 345 347 346 343 342
371 368 367 367 368 368 364 363 359 357 355 350 346 343 342 345 343 344 343 345 346 343
369 368 366 368 369 367 364 356 356 356 351 349 344 342 348 348 345 344 344 344 344 343
369 369 367 369 369 368 363 358 356 355 353 349 347 345 346 346 344 344 344 343 343 342
371 371 371 368 368 368 361 359 356 354 352 349 342 339 343 344 343 345 343 342 345 346
372 370 370 368 367 365 361 355 354 352 348 345 334 329 332 340 341 344 343 344 343 345
372 370 369 367 365 362 357 353 350 348 346 338 341 326 329 334 341 343 344 346 345 342
372 370 367 362 361 358 354 353 349 347 344 344 346 326 325 330 340 343 343 343 347 346
368 368 365 359 357 354 352 350 347 345 344 343 349 324 323 329 339 339 343 346 347 345
369 366 360 358 357 355 351 348 346 344 344 336 347 324 319 326 339 339 337 346 348 329
363 364 361 355 356 351 345 345 344 344 343 343 343 342 318 317 339 335 336 342 341 338

GFSNIL_sfc_thetae_024.txt.gz
Theta_e
366 366 363 364 361 355 353 354 356 357 355 357 353 354 351 350 346 346 346 344 346 343
367 365 362 364 363 361 357 363 355 356 355 353 353 352 350 343 344 345 347 346 348 344
368 366 364 365 364 358 365 362 358 356 355 352 351 351 348 346 349 343 346 345 345 344
367 368 365 363 363 361 362 361 357 356 352 350 350 351 348 346 348 345 345 343 344 344
368 368 366 362 365 365 361 364 360 355 352 351 348 349 346 344 344 343 343 343 344 343
366 365 364 365 362 364 363 359 354 355 352 350 348 346 346 346 345 342 341 342 343 341
365 365 364 364 364 363 364 359 356 354 352 351 349 347 345 346 345 344 343 346 344 343
366 366 366 364 364 363 365 361 357 353 352 352 348 346 343 344 345 344 342 344 345 344
364 367 365 364 364 364 364 362 358 353 352 350 346 334 333 342 344 343 342 340 343 342
363 365 365 365 363 363 362 360 357 352 351 349 347 328 329 334 344 342 341 343 342 342
365 365 365 364 363 361 363 360 354 352 350 347 345 325 325 331 340 339 340 342 343 343
367 367 365 364 362 362 360 357 352 348 346 344 341 323 324 328 334 336 339 342 343 344
370 367 366 365 363 363 358 353 353 349 347 336 339 321 320 326 337 335 335 341 342 330
368 368 368 364 361 358 354 351 349 346 342 340 337 336 318 318 337 336 336 339 339 340

GFSNIL_sfc_thetae_027.txt.gz
Theta_e
355 358 351 351 347 342 346 344 345 346 344 341 338 344 340 337 336 336 332 331 331 332
355 355 357 352 352 347 344 347 346 348 345 343 339 340 339 337 335 336 333 332 334 330
358 356 356 354 351 351 345 348 347 348 346 346 342 341 339 336 339 336 337 333 333 334
360 359 356 356 353 351 350 349 348 348 347 344 344 343 341 336 336 337 334 335 333 334
359 361 357 354 354 355 349 351 350 348 347 344 342 343 340 336 338 336 335 333 331 332
359 359 359 356 356 356 353 351 350 350 347 344 343 342 340 337 335 336 336 335 334 334
359 360 360 360 356 356 356 352 349 348 346 344 343 342 340 338 337 336 335 334 336 336
359 361 360 360 359 355 355 354 351 347 346 345 343 342 339 339 338 337 335 335 338 338
357 359 359 359 358 358 354 356 351 346 345 344 345 336 335 338 337 337 336 334 336 337
356 357 358 358 357 356 355 356 354 348 345 344 345 331 332 336 337 337 335 334 337 337
355 356 358 358 356 356 357 356 354 349 347 346 345 329 327 332 334 335 335 339 339 337
355 356 358 357 357 356 356 353 352 350 348 346 338 323 323 327 332 331 332 333 337 336
355 356 358 358 357 356 355 354 350 346 345 336 336 322 319 324 330 328 330 332 335 330
358 359 360 358 358 356 352 349 348 345 342 340 336 327 317 318 332 331 331 332 332 332

GFSNIL_sfc_thetae_030.txt.gz
Theta_e
350 349 349 344 346 348 347 345 345 344 340 336 338 337 335 333 333 332 329 332 328 327
351 351 351 348 344 344 344 343 345 343 341 337 336 339 336 333 332 334 330 328 327 328
350 351 353 350 347 343 343 344 343 344 341 339 335 338 336 333 333 332 332 330 330 328
352 350 350 353 350 348 343 344 342 345 342 341 337 336 337 333 334 332 332 332 329 329
353 353 351 350 353 350 348 345 345 344 343 342 340 338 338 335 335 334 331 332 331 329
354 354 353 352 351 352 349 347 346 345 344 342 342 340 339 338 334 333 334 333 331 330
353 356 356 354 352 351 352 346 347 346 345 344 341 341 340 338 334 333 334 334 333 331
354 355 357 356 354 352 351 352 347 346 345 344 342 340 339 338 336 334 333 333 334 334
356 355 355 356 356 353 352 351 348 346 344 341 343 334 335 338 336 336 334 332 332 334
355 355 356 356 356 355 352 351 348 345 344 342 343 330 331 335 338 337 336 334 333 333
355 354 356 356 355 355 355 351 350 346 345 344 344 327 328 333 339 338 337 335 334 334
354 353 355 354 354 354 355 353 352 349 346 344 344 325 324 330 336 336 336 337 337 338
353 354 353 355 355 355 355 353 353 350 348 341 344 322 320 330 335 333 333 329 332 327
352 353 354 356 357 355 354 353 352 347 346 343 337 325 317 319 331 331 327 328 330 332

GFSNIL_sfc_thetae_033.txt.gz
Theta_e
347 346 345 342 342 344 346 347 348 348 344 336 336 335 332 331 330 329 328 327 327 326
348 347 345 343 343 345 346 348 345 347 343 337 335 335 332 331 330 330 327 329 327 327
348 348 347 346 343 343 344 344 344 344 342 337 334 336 334 330 330 331 329 327 325 326
348 349 349 348 346 344 343 342 342 343 341 338 333 336 335 332 331 329 329 329 327 327
347 347 348 349 349 346 342 342 341 343 341 339 337 333 336 334 334 331 328 329 329 328
347 348 347 347 350 349 346 342 342 342 341 340 338 335 335 336 334 333 332 329 329 329
347 348 348 348 347 349 350 346 342 342 342 342 341 338 337 335 335 333 333 332 331 330
349 349 350 350 349 348 349 349 346 343 342 343 341 341 338 337 335 334 333 332 333 332
349 350 351 351 351 349 348 349 346 344 343 342 342 334 334 339 337 335 334 332 332 333
349 349 350 352 352 350 348 348 346 345 344 342 343 329 330 335 338 335 334 334 335 334
350 349 350 351 352 352 351 349 348 344 344 343 343 327 326 333 339 336 337 337 336 335
352 351 351 350 351 353 353 351 350 347 344 343 343 324 323 329 338 337 337 337 337 336
352 352 352 352 352 353 354 353 351 349 347 340 344 321 320 328 338 336 336 336 336 328
352 352 353 353 354 354 353 353 351 350 350 345 343 327 317 323 338 337 335 334 328 328

GFSNIL_sfc_thetae_036.txt.gz
Theta_e
347 346 346 345 345 345 346 348 351 351 350 345 342 342 338 336 334 336 335 334 333 332
348 347 346 346 346 346 348 349 349 351 349 344 342 340 338 336 334 335 334 334 334 333
347 348 348 347 345 346 347 349 348 349 349 343 341 340 338 336 336 336 333 333 333 333
347 348 348 347 347 346 347 348 347 348 347 344 340 339 338 336 336 335 335 334 332 333
348 348 347 347 348 348 346 346 347 347 346 345 341 340 338 336 336 335 334 335 333 333
347 347 347 348 349 348 346 345 345 346 345 344 342 338 340 339 338 336 336 335 334 334
346 347 347 349 350 350 348 345 344 344 345 345 343 341 339 339 338 338 337 337 335 335
346 347 347 347 348 350 350 348 345 344 344 345 343 342 340 339 338 337 337 337 337 336
346 347 347 348 347 347 349 350 348 344 344 343 343 335 333 339 339 339 337 336 337 338
346 346 347 348 348 347 346 348 349 347 345 344 345 329 330 334 341 340 338 338 338 336
346 346 348 348 348 348 348 347 347 347 347 346 345 327 326 333 342 341 339 339 338 338
348 347 347 348 349 350 350 349 348 349 347 346 346 325 324 329 342 340 338 339 339 338
349 348 348 348 349 351 352 351 350 349 349 341 347 324 321 328 341 339 338 339 338 329
350 350 350 350 351 351 351 352 351 350 350 347 345 340 318 320 341 339 338 337 336 337

GFSNIL_sfc_thetae_039.txt.gz
Theta_e
360 356 356 357 354 353 353 354 363 362 363 362 361 359 357 352 349 350 348 347 346 342
359 358 357 360 361 355 361 356 360 361 362 362 361 359 357 352 350 348 349 348 347 343
357 358 359 360 359 360 361 360 359 360 362 361 360 359 356 353 351 348 346 344 346 345
356 358 359 358 359 361 362 362 361 360 360 360 358 358 355 354 350 347 347 346 345 345
357 358 358 358 359 361 360 363 363 362 360 359 358 358 355 352 349 347 346 346 345 343
356 357 357 358 359 361 360 361 360 361 360 359 358 357 355 354 351 349 348 347 346 344
356 356 357 358 359 360 360 360 360 361 361 360 358 356 355 354 352 351 349 348 347 346
356 357 358 358 359 359 360 359 360 359 360 359 358 354 355 354 353 352 349 348 347 347
355 357 357 357 358 359 359 360 359 358 357 357 354 340 337 350 353 353 351 349 348 349
355 355 356 357 358 358 358 360 359 357 357 357 357 331 331 336 354 353 352 352 351 348
355 354 356 357 356 357 357 357 358 358 357 357 356 328 327 333 352 355 354 354 353 352
354 355 356 355 355 356 356 356 356 359 359 357 357 326 324 332 348 352 354 354 353 352
356 354 355 355 356 358 358 357 356 357 359 349 358 326 322 331 350 351 351 351 352 331
358 358 358 357 358 354 356 359 358 356 357 357 353 353 320 321 350 350 348 347 346 344

GFSNIL_sfc_thetae_042.txt.gz
Theta_e
370 359 359 364 358 356 355 355 363 363 365 367 367 367 368 362 359 359 356 352 350 343
368 367 360 368 369 360 367 357 361 362 365 366 366 368 367 361 359 358 358 354 352 346
367 369 369 369 369 369 368 366 362 363 363 365 366 368 367 362 361 359 355 350 351 351
366 365 367 365 369 370 370 372 367 367 364 363 365 367 366 364 360 358 357 353 350 352
368 367 365 367 368 370 371 371 371 370 366 363 364 366 365 362 359 357 355 354 352 350
365 365 366 368 368 369 370 371 369 370 369 366 364 364 364 363 361 358 357 355 353 350
365 366 366 368 369 370 371 371 371 371 372 370 366 364 362 362 364 361 358 357 355 352
365 367 368 368 369 370 370 370 371 371 371 369 367 359 366 365 363 364 360 360 357 354
365 367 368 368 369 370 369 370 371 369 369 368 362 343 340 358 363 364 364 361 358 358
365 366 367 367 368 369 369 369 369 369 369 368 368 334 333 340 363 363 364 364 362 355
364 365 367 368 367 368 368 368 368 367 368 367 367 332 329 336 360 364 366 365 365 363
364 364 366 365 366 365 365 363 363 364 365 367 368 328 324 334 356 358 364 364 366 363
364 366 365 365 365 364 363 361 359 362 364 351 364 333 321 330 353 355 355 363 365 336
364 368 365 367 367 366 364 364 363 359 360 363 361 360 319 319 351 352 354 355 357 358

GFSNIL_sfc_thetae_045.txt.gz
Theta_e
371 360 358 362 357 355 354 354 372 373 370 370 369 369 374 364 362 366 359 358 355 345
372 369 362 364 368 360 367 356 365 366 368 370 371 373 374 361 366 366 363 363 360 349
372 373 370 369 370 367 368 372 368 368 366 368 371 372 374 365 368 366 359 356 362 358
371 372 374 370 370 371 374 377 371 373 369 370 369 371 372 370 368 365 365 363 363 359
372 373 371 371 371 374 373 376 376 372 372 370 369 371 371 368 362 365 362 361 360 358
370 371 370 371 373 373 374 374 374 373 372 371 369 369 372 370 368 365 364 363 361 358
370 370 370 372 374 374 375 374 374 374 373 373 372 369 370 369 369 367 365 365 363 360
370 373 373 372 372 374 374 374 375 375 374 374 372 366 368 368 368 369 367 367 366 363
369 372 372 373 372 374 373 374 375 374 373 372 368 346 340 358 366 368 368 366 367 365
368 368 372 373 373 372 372 374 373 373 373 372 373 339 335 341 365 367 367 369 368 365
368 369 371 372 372 373 373 373 372 373 374 373 372 337 329 335 361 364 366 365 366 366
369 369 370 370 372 373 372 372 371 372 372 371 372 333 328 334 358 360 361 362 365 365
370 370 369 371 372 373 372 371 367 369 372 360 371 334 324 335 360 358 356 360 360 339
370 371 372 373 374 373 371 367 369 368 370 371 367 364 321 322 356 354 353 354 356 360

GFSNIL_sfc_thetae_048.txt.gz
Theta_e
362 364 355 358 358 354 356 357 365 363 365 366 365 365 370 368 365 364 362 362 356 351
361 362 361 357 362 364 361 360 371 365 364 366 368 367 367 363 365 365 362 359 360 355
365 362 361 364 358 360 366 368 372 366 366 366 365 368 366 365 365 362 363 358 358 356
366 365 363 359 362 361 364 366 372 370 365 364 365 365 367 364 363 362 360 360 358 355
367 368 366 362 362 364 366 368 367 369 367 365 363 365 365 363 359 361 359 357 359 358
366 367 367 366 364 365 364 367 367 370 366 364 364 363 364 364 363 358 362 360 357 355
366 366 367 368 368 366 367 364 367 367 367 367 365 364 363 364 364 363 361 362 359 358
365 368 368 368 368 369 367 367 366 367 367 366 366 364 363 362 364 363 362 361 362 360
364 365 367 367 367 368 368 367 368 367 367 366 365 348 343 357 362 364 362 361 360 361
364 364 366 367 367 366 367 368 367 367 368 366 367 341 337 342 361 360 362 362 361 359
365 364 366 367 367 367 366 367 367 366 367 367 367 340 333 337 357 359 360 361 361 360
366 365 365 366 366 367 367 367 367 368 367 366 366 336 332 334 353 356 357 358 360 361
363 365 365 365 366 369 369 366 367 367 368 357 367 340 328 334 359 355 354 356 356 338
365 363 367 368 368 368 368 367 366 366 367 368 364 364 325 323 361 359 354 352 350 354

GFSNIL_sfc_thetae_051.txt.gz
Theta_e
352 350 347 348 350 344 349 354 355 357 359 357 355 355 356 355 355 352 349 349 346 337
348 353 348 345 348 350 347 351 354 356 356 358 356 354 354 357 355 354 352 348 349 345
353 349 355 350 346 347 351 350 352 356 355 359 358 356 355 355 356 352 353 351 349 347
355 354 351 354 350 350 350 352 358 357 357 357 356 359 356 353 354 354 352 351 350 347
357 358 354 351 353 350 349 353 353 360 359 358 358 357 357 354 356 352 352 351 348 348
357 358 357 355 352 354 352 351 356 356 358 358 357 357 357 358 357 352 353 353 351 349
358 358 359 360 357 354 356 354 358 356 357 358 357 356 358 357 357 356 353 355 354 352
359 360 360 360 361 360 356 358 355 359 357 359 359 358 356 357 357 357 356 354 356 355
359 360 360 361 361 361 361 357 359 355 358 359 360 346 342 353 356 357 356 356 355 356
358 358 359 361 361 360 361 362 358 359 358 358 360 339 337 342 357 356 357 357 357 356
355 357 358 359 360 360 361 360 361 360 360 360 360 338 333 337 356 356 355 358 358 357
356 356 358 357 359 360 360 360 360 362 360 360 361 333 331 333 351 355 355 356 357 358
357 358 357 358 359 361 361 360 361 360 362 353 361 337 327 332 356 353 353 355 355 338
358 358 359 359 360 361 361 361 360 360 360 362 359 358 325 323 356 358 356 354 352 353

GFSNIL_sfc_thetae_054.txt.gz
Theta_e
343 345 342 339 339 337 344 349 351 355 355 354 351 350 350 350 349 347 344 344 341 335
347 345 344 342 340 341 343 351 352 354 356 355 353 351 352 349 350 349 346 343 345 342
347 351 348 343 341 346 344 347 351 352 354 356 354 352 350 350 352 351 349 348 344 343
347 345 350 349 343 344 344 348 346 351 352 353 354 352 350 349 350 350 350 350 347 344
350 349 345 348 351 347 345 345 349 353 352 352 354 354 352 350 353 352 350 351 349 348
351 351 350 347 348 352 348 346 347 354 354 353 354 354 355 354 352 352 352 352 350 350
350 352 354 353 350 348 351 349 344 350 355 356 356 355 355 355 354 352 352 352 352 351
352 353 355 355 354 352 349 351 351 348 351 356 356 356 354 354 354 354 353 352 353 353
354 354 355 355 356 355 352 350 351 351 351 352 356 344 340 351 353 353 352 351 352 352
353 355 355 356 356 357 356 355 352 353 352 351 355 336 336 340 353 353 353 352 352 353
354 354 356 356 356 357 358 357 357 354 355 355 354 334 332 336 352 354 354 354 354 353
354 354 355 355 356 357 358 358 358 359 357 355 356 330 330 333 349 353 354 355 355 355
349 354 355 356 356 358 359 358 359 358 359 351 358 334 326 332 353 352 353 355 356 337
349 350 354 356 357 356 357 357 357 357 358 359 356 355 324 323 354 356 355 355 354 355

GFSNIL_sfc_thetae_057.txt.gz
Theta_e
343 341 341 340 336 337 338 343 345 348 351 351 349 348 347 347 346 342 343 342 337 335
344 343 341 340 340 338 339 344 345 348 350 352 350 348 347 347 347 345 342 342 342 338
344 344 344 341 338 338 338 342 346 347 349 352 352 350 348 347 348 347 345 344 340 341
345 345 344 342 342 342 341 340 343 348 349 351 352 351 348 348 349 349 348 347 344 342
345 346 347 346 342 341 343 343 344 345 348 350 352 352 350 348 350 349 348 349 347 346
344 344 343 348 350 345 342 342 342 348 348 348 350 351 351 350 349 349 349 349 349 349
346 346 345 344 344 349 350 345 343 345 347 350 350 351 352 351 350 350 350 350 351 350
346 348 349 348 346 345 346 350 348 346 346 350 352 353 352 352 351 350 350 350 351 351
345 347 349 350 349 348 346 346 349 347 346 347 351 342 340 349 352 352 350 349 350 351
347 346 348 350 351 351 349 348 345 347 347 347 348 334 335 340 352 351 350 350 350 350
348 349 349 350 351 352 353 351 349 347 348 348 348 333 331 336 350 352 352 352 351 350
349 349 351 351 351 353 353 354 354 353 351 350 351 329 328 332 348 350 351 352 352 352
350 350 350 352 353 353 355 354 356 356 357 347 352 332 325 330 349 349 350 353 354 336
350 351 352 353 354 355 354 355 355 355 357 357 353 353 324 322 349 352 352 351 352 353

GFSNIL_sfc_thetae_060.txt.gz
Theta_e
343 341 342 341 341 340 339 342 347 350 353 354 354 352 352 351 350 350 349 349 344 341
343 342 342 342 342 342 342 343 346 348 351 353 354 353 352 350 351 351 349 349 349 345
344 344 344 342 341 342 341 344 346 348 349 351 353 353 352 351 352 351 350 348 347 348
344 345 345 342 342 342 342 341 344 348 349 350 353 354 352 352 353 351 352 351 350 348
345 345 344 344 343 343 342 342 344 347 349 351 353 354 352 351 353 352 351 352 352 351
344 344 344 344 344 345 345 345 345 345 346 349 351 353 354 354 352 352 353 353 352 352
344 344 345 346 346 344 344 344 345 347 348 349 351 352 354 354 353 353 352 353 353 353
344 345 345 346 348 350 348 345 345 345 346 348 351 351 352 354 354 353 352 353 353 354
345 346 345 345 344 345 348 350 350 347 346 346 348 339 337 349 353 354 353 352 353 354
345 346 347 348 347 346 344 345 348 349 349 348 348 333 333 338 352 353 353 354 354 353
345 345 347 348 348 349 349 347 345 346 348 349 348 331 329 334 351 353 353 354 354 354
346 346 346 346 348 350 351 350 349 349 348 348 349 328 327 331 347 350 352 354 355 354
348 348 348 348 348 351 352 352 353 352 353 343 350 330 324 329 349 348 349 353 354 336
349 349 351 352 353 352 352 353 354 355 356 357 351 351 324 321 348 350 350 351 353 355

GFSNIL_sfc_thetae_063.txt.gz
Theta_e
358 351 351 355 351 349 349 351 359 360 362 363 365 364 364 361 360 362 360 359 357 351
356 356 353 357 357 351 356 351 355 358 359 361 363 364 365 361 361 362 362 361 362 358
355 356 356 356 356 357 355 355 353 356 357 359 361 363 364 360 363 362 360 358 360 360
354 354 354 353 354 356 356 356 356 357 357 358 358 360 362 361 360 362 362 363 361 360
355 356 353 354 354 355 355 356 356 357 358 358 358 360 360 358 357 358 360 361 362 361
354 353 355 355 356 355 356 356 355 356 355 356 357 358 360 360 359 360 360 361 362 362
353 355 355 357 357 355 356 356 356 356 357 357 357 357 357 358 360 361 361 362 363 362
354 356 357 357 357 355 356 357 358 358 357 356 355 353 357 358 360 361 361 361 362 362
355 356 356 357 357 357 355 355 356 355 356 355 353 339 337 351 356 360 360 360 363 364
355 355 356 357 357 358 358 357 357 355 355 356 357 333 332 337 355 359 361 362 361 358
355 355 356 356 355 357 355 357 358 357 358 357 358 332 329 333 353 359 361 362 363 363
354 355 356 355 356 357 355 354 355 356 358 358 359 329 327 333 352 354 359 361 363 363
355 355 355 357 358 359 357 356 355 355 357 347 359 332 324 331 351 354 352 360 364 338
357 356 358 358 360 360 358 359 358 358 360 359 355 356 323 320 353 353 354 354 355 358

GFSNIL_sfc_thetae_066.txt.gz
Theta_e
363 354 355 359 354 353 351 352 359 363 363 365 364 365 367 362 360 363 360 361 359 351
363 362 356 366 363 355 361 354 358 360 362 362 363 365 367 361 365 363 363 365 365 357
361 361 363 361 363 363 361 360 358 360 359 360 362 363 367 362 364 366 362 358 362 364
359 359 360 358 360 362 363 362 362 360 358 358 360 363 364 364 361 362 365 365 363 363
361 362 357 359 359 362 362 363 363 362 361 358 358 362 362 361 358 359 360 363 365 364
358 358 361 360 360 361 362 362 362 362 361 360 358 360 362 362 360 359 360 362 363 364
361 362 358 363 363 361 362 362 362 364 363 361 359 357 358 359 361 361 360 363 365 365
364 364 365 365 364 363 364 362 363 363 362 361 359 353 358 357 358 361 361 363 365 366
364 365 365 366 365 365 364 363 363 363 361 360 356 338 336 350 354 357 360 361 363 366
365 365 366 366 366 366 366 364 363 362 362 362 363 334 331 337 354 355 358 364 362 359
365 364 366 366 366 367 364 364 365 362 364 363 362 333 329 333 356 360 362 363 364 367
364 364 364 363 364 365 363 363 364 364 364 366 366 330 328 336 355 354 362 362 365 366
364 365 363 365 366 366 363 361 360 361 364 353 366 333 325 335 355 356 352 362 369 340
363 366 367 368 367 366 364 364 363 362 364 363 359 360 322 321 358 353 352 352 353 357

GFSNIL_sfc_thetae_069.txt.gz
Theta_e
365 353 354 362 353 350 348 351 372 365 363 364 365 364 369 362 360 368 359 361 364 354
364 359 354 364 367 357 362 354 359 361 364 365 365 366 372 360 365 363 364 364 365 358
365 365 362 365 368 364 368 366 361 362 360 363 366 367 373 366 368 368 361 356 368 367
363 363 362 363 367 368 370 372 368 366 363 362 363 367 371 371 366 368 369 366 366 368
366 364 362 359 365 369 370 372 372 370 367 363 362 368 368 362 362 361 361 363 368 364
365 364 362 365 366 367 369 370 368 370 369 367 364 365 367 367 364 361 362 364 366 365
364 365 364 367 368 368 371 370 370 372 371 369 366 364 362 364 367 366 361 363 365 366
365 367 368 366 368 368 370 370 372 372 370 369 365 359 363 364 365 367 365 365 365 366
366 367 367 366 367 369 369 370 371 370 369 368 359 342 338 354 360 364 366 366 368 370
367 367 368 367 367 368 369 370 371 370 370 369 370 336 333 338 359 361 363 366 368 365
368 367 369 369 368 369 369 369 370 370 371 371 369 337 329 334 359 359 362 365 368 368
367 368 370 368 368 370 369 369 370 372 372 372 370 332 328 335 356 356 362 364 365 365
369 369 369 370 371 371 371 369 363 367 371 359 372 336 326 335 356 357 354 363 367 341
369 370 372 373 373 372 369 366 369 369 371 372 367 368 325 322 360 355 353 352 351 355

GFSNIL_sfc_thetae_072.txt.gz
Theta_e
362 354 357 365 355 357 351 356 363 364 367 370 367 368 369 368 365 366 364 364 364 360
359 360 354 365 368 358 364 362 362 364 367 367 367 367 367 364 364 367 368 364 366 364
354 357 360 356 366 363 367 365 364 365 365 366 369 369 366 364 363 365 362 363 363 365
354 355 354 356 356 361 363 374 369 369 367 366 365 368 368 365 363 362 363 363 365 363
360 357 354 351 356 364 362 367 375 368 370 366 365 366 365 362 359 361 362 364 364 364
358 359 358 352 357 359 362 367 364 370 364 366 363 363 364 364 361 363 363 364 365 363
359 358 358 360 354 361 362 361 366 365 366 365 364 362 361 363 363 363 362 363 361 363
361 361 361 360 359 354 362 363 365 365 365 365 365 362 361 360 362 362 363 363 363 363
361 361 361 360 360 360 359 362 364 364 364 364 363 345 340 353 357 363 361 360 361 364
360 360 360 361 361 361 360 361 363 363 365 364 365 339 334 340 356 356 358 362 361 362
359 359 361 361 360 361 361 361 362 363 364 365 365 339 332 334 352 356 358 360 360 361
359 359 361 360 361 361 361 361 361 363 365 364 364 335 333 333 350 352 355 356 357 360
361 362 361 362 362 362 362 361 362 363 365 356 365 338 328 333 355 353 352 356 358 339
366 363 364 365 365 363 363 363 362 362 364 367 363 363 326 322 356 355 354 353 353 357

GFSNIL_sfc_thetae_075.txt.gz
Theta_e
345 344 347 351 347 349 350 349 350 357 354 353 354 353 355 353 354 351 351 347 350 347
351 342 345 348 351 349 346 350 351 356 357 356 356 356 354 352 353 352 353 348 350 350
348 350 347 348 352 351 347 349 353 354 358 356 355 354 355 351 354 351 350 352 352 348
343 349 349 346 347 352 350 356 357 356 356 356 356 355 354 350 353 350 349 351 352 350
343 347 349 347 344 349 350 352 356 358 357 356 354 355 354 353 353 352 351 352 350 352
349 343 346 346 345 344 352 351 355 356 355 354 355 353 355 354 353 352 353 354 354 353
349 350 344 345 344 348 353 355 354 357 354 357 354 353 354 355 354 352 353 355 354 355
351 351 352 349 347 343 351 353 355 355 357 356 357 357 352 354 355 353 353 353 354 354
353 352 351 352 352 345 347 352 352 354 355 356 359 345 343 350 352 355 354 353 353 355
354 354 353 353 352 351 345 349 355 354 356 355 357 339 337 343 352 351 354 354 353 353
354 353 354 354 353 352 351 346 347 355 356 356 357 339 333 337 349 350 349 354 354 354
354 353 354 353 353 353 353 353 350 352 355 356 357 334 333 332 338 346 348 350 351 353
353 354 354 353 354 354 354 354 355 353 355 350 357 336 330 332 349 342 344 346 348 337
354 353 355 355 355 355 354 354 354 354 356 356 356 356 328 323 353 352 347 346 346 349

GFSNIL_sfc_thetae_078.txt.gz
Theta_e
341 340 343 345 347 348 348 349 352 353 351 350 350 351 351 347 350 349 348 345 346 344
345 339 342 346 346 348 348 348 349 353 350 349 349 349 350 349 349 349 349 347 344 346
344 345 339 344 346 346 347 346 347 353 352 350 350 352 349 348 349 349 347 349 347 345
341 346 341 342 344 349 345 346 348 350 353 352 351 349 350 348 348 348 345 346 347 347
340 343 346 345 342 348 347 351 351 350 354 352 352 351 350 348 349 348 347 347 347 347
339 340 344 347 345 341 348 348 353 352 352 353 352 351 352 351 349 348 349 349 348 348
344 340 340 346 344 344 343 346 349 353 352 352 353 352 352 351 349 349 349 351 350 351
347 346 340 340 345 343 343 346 349 351 353 353 353 353 351 351 350 348 348 349 351 352
347 348 346 341 341 342 343 347 348 350 352 351 355 341 340 348 350 350 349 348 349 351
346 347 348 348 343 342 340 341 347 350 352 352 354 336 336 341 350 351 351 350 349 349
350 348 348 348 349 347 346 340 343 347 348 352 353 335 333 337 350 349 349 352 351 350
352 351 350 348 348 350 349 346 342 347 351 349 350 331 330 334 347 350 348 348 352 352
353 352 351 351 351 351 351 350 348 345 346 346 353 332 328 332 350 345 345 347 346 335
351 353 353 353 353 352 352 351 350 349 348 348 350 351 325 324 353 351 347 345 344 347

GFSNIL_sfc_thetae_081.txt.gz
Theta_e
338 339 340 341 343 345 345 349 351 350 350 348 348 350 347 348 346 348 345 344 344 341
338 338 338 342 343 346 345 348 349 351 350 349 348 348 348 346 345 347 345 345 341 343
339 338 338 340 345 345 345 345 346 350 349 348 347 346 346 345 346 346 346 346 344 342
342 342 337 339 342 345 345 344 344 348 349 348 347 348 347 345 346 346 345 344 344 343
340 342 342 339 340 342 345 344 345 345 349 349 349 347 347 347 348 345 344 345 343 344
338 338 341 343 341 341 344 345 346 347 346 349 350 349 348 348 346 346 346 346 345 345
338 338 339 340 344 341 342 344 347 349 348 350 350 350 350 349 347 346 347 348 348 348
341 339 339 339 341 345 343 343 346 348 350 349 350 351 349 350 349 347 346 346 348 349
343 342 338 338 339 341 343 343 342 345 348 349 351 340 338 347 348 348 347 346 345 347
344 343 343 339 337 338 340 341 342 344 345 347 350 335 334 339 349 348 347 346 346 346
344 344 345 344 339 337 339 339 338 341 345 346 347 334 331 335 348 348 348 348 348 347
346 343 344 344 344 343 340 339 339 338 339 344 347 330 328 332 346 348 347 348 349 349
346 349 345 345 345 347 346 344 344 341 341 337 344 328 326 331 349 347 348 350 347 334
336 343 351 348 347 347 348 348 347 345 344 344 345 346 322 323 349 348 347 347 347 346

GFSNIL_sfc_thetae_084.txt.gz
Theta_e
340 342 342 343 344 346 347 350 353 352 354 353 352 353 351 352 352 352 350 351 351 348
339 340 341 343 346 347 348 350 353 354 354 353 351 352 352 351 351 352 353 352 350 349
339 340 341 343 344 347 349 349 351 353 354 353 353 352 352 352 351 352 351 351 351 349
340 339 339 341 345 347 349 349 349 351 352 352 351 352 351 351 352 351 351 350 351 351
343 342 339 339 341 346 348 348 349 348 352 352 352 352 351 350 351 350 350 351 348 349
343 342 342 340 340 343 345 347 348 349 348 351 352 351 351 352 352 352 351 351 350 351
340 341 343 344 342 341 343 345 347 348 349 350 352 353 352 351 351 352 352 352 352 352
340 341 341 342 344 344 343 344 345 348 351 351 352 351 352 353 352 351 351 352 352 353
341 341 340 340 341 344 344 344 345 345 348 351 352 339 338 349 352 352 352 351 352 353
343 342 341 340 340 341 343 344 343 344 346 348 351 334 334 339 353 352 352 352 353 351
344 343 344 343 339 339 341 342 343 343 345 345 347 332 330 335 350 352 352 352 352 352
345 344 344 343 343 341 340 340 341 343 344 345 345 327 328 333 349 350 352 352 353 353
333 339 344 345 345 345 342 341 341 341 342 337 344 327 325 330 348 347 348 352 352 334
331 333 338 347 347 347 346 346 344 343 343 342 339 342 321 322 347 346 346 347 348 352

GFSNIL_sfc_thetae_087.txt.gz
Theta_e
357 353 353 357 354 354 355 357 364 363 364 363 363 364 364 358 360 362 360 360 362 358
355 355 354 359 359 355 360 358 362 362 363 364 363 363 364 357 361 361 362 361 361 358
353 354 355 356 357 358 359 360 360 362 363 363 363 362 363 360 362 361 360 359 361 361
352 351 353 351 354 357 360 361 361 362 362 362 363 364 362 361 361 360 361 361 361 360
353 352 350 351 352 355 357 361 362 362 362 362 362 363 362 360 358 359 359 359 360 358
351 351 350 351 352 353 356 358 359 362 361 361 361 362 363 362 361 359 358 359 359 359
352 354 351 354 353 352 353 356 358 359 359 360 362 361 361 361 361 361 359 360 360 360
353 353 354 355 355 352 353 354 357 356 356 358 358 358 360 360 360 360 360 360 361 361
350 351 352 353 354 354 353 353 355 354 355 356 353 340 339 354 360 361 360 359 361 362
351 349 350 349 351 352 353 354 352 354 354 356 358 333 334 339 359 360 361 361 361 359
350 349 350 351 349 352 351 352 354 353 354 355 354 332 330 335 357 361 362 362 362 361
346 349 350 349 350 350 349 350 351 352 355 354 355 328 327 334 353 355 361 361 362 362
334 336 344 351 352 352 350 349 348 349 353 344 355 332 323 332 348 350 350 360 364 337
332 334 336 342 346 350 351 350 350 350 352 353 351 352 322 320 351 349 348 348 349 351

GFSNIL_sfc_thetae_090.txt.gz
Theta_e
363 358 357 357 353 354 353 357 364 365 364 364 361 361 365 360 358 358 356 357 360 355
363 362 358 360 360 355 360 358 364 363 364 363 362 362 363 357 360 361 359 359 360 357
361 362 362 360 360 359 358 361 362 364 363 362 364 363 365 360 361 362 358 356 361 366
358 360 361 359 358 360 361 362 363 365 365 363 362 365 366 364 361 360 359 360 361 362
360 360 358 359 357 359 359 362 364 364 364 364 364 366 366 362 358 360 359 358 361 360
358 358 358 358 359 359 359 360 360 362 362 362 364 365 365 365 362 361 361 361 361 359
357 359 358 359 360 359 360 359 359 360 362 363 363 363 363 363 364 364 363 363 363 362
358 359 359 360 359 359 360 359 360 359 359 361 361 359 362 364 363 364 363 364 364 363
357 358 359 360 359 359 359 359 360 358 356 356 354 340 339 355 362 363 363 363 364 365
355 355 357 358 359 358 359 359 359 358 358 358 358 334 333 341 360 361 364 364 363 361
352 353 356 355 356 357 357 358 358 358 359 359 359 331 329 335 358 360 364 364 364 364
350 352 354 352 354 356 356 355 356 357 359 361 361 328 327 335 351 351 362 363 366 365
335 340 348 353 357 357 357 355 353 355 357 348 360 334 323 333 351 351 345 358 367 339
335 336 342 346 345 351 358 360 357 355 355 358 355 357 323 320 354 350 349 343 343 350

GFSNIL_sfc_thetae_093.txt.gz
Theta_e
367 359 356 359 357 353 352 356 369 363 363 363 363 362 365 360 358 364 358 360 365 358
368 366 361 364 364 358 363 356 363 361 364 362 363 363 369 362 362 367 361 362 364 359
363 365 365 364 362 363 363 362 355 362 360 363 363 363 366 363 365 363 359 354 367 367
363 362 365 362 362 363 363 366 362 358 365 362 362 365 366 367 364 362 365 364 362 363
363 364 361 362 362 364 365 367 365 364 364 364 363 369 363 360 357 360 358 359 363 360
361 361 362 364 365 365 367 367 361 367 366 365 363 363 366 364 361 358 358 360 360 358
361 363 361 365 368 366 368 368 366 368 368 367 365 365 362 364 366 364 360 361 362 360
363 365 365 367 368 365 367 366 369 367 366 365 363 358 366 364 365 368 366 365 364 363
357 365 364 364 365 368 367 368 369 367 365 362 353 341 339 356 363 366 368 367 368 370
357 356 359 363 363 365 366 365 367 367 366 365 364 335 334 340 360 364 367 369 370 364
339 346 353 357 358 361 362 364 366 365 366 367 364 335 329 335 362 363 366 368 368 369
337 340 341 349 354 355 358 360 360 362 363 367 366 331 328 334 351 354 362 366 369 369
331 335 341 343 345 354 361 359 356 356 360 350 364 338 325 332 352 353 350 357 363 342
334 333 334 341 348 351 354 358 359 359 362 362 359 362 324 321 356 354 352 352 352 353

GFSNIL_sfc_thetae_096.txt.gz
Theta_e
367 362 358 355 361 359 359 355 358 365 367 370 368 367 368 364 364 366 363 363 357 360
366 366 363 366 368 361 365 353 354 362 365 365 365 366 365 363 364 364 365 364 363 364
365 366 367 372 366 365 363 353 350 351 362 363 364 365 364 364 362 362 361 359 362 363
363 365 367 365 366 368 365 362 353 352 355 362 363 365 367 364 359 358 360 364 361 362
364 364 364 364 365 366 366 365 359 354 357 361 365 365 364 363 360 358 359 361 359 359
362 363 363 365 366 367 366 366 364 366 364 364 363 364 365 364 364 362 360 362 362 360
361 362 363 365 366 367 368 365 365 363 364 367 365 364 363 361 363 363 361 360 362 363
347 361 363 366 367 366 366 366 366 365 364 365 364 360 363 363 362 361 362 364 364 363
349 351 360 364 366 367 368 366 366 364 363 362 360 343 340 356 360 363 361 361 364 365
344 347 348 356 360 364 364 366 364 364 363 362 362 339 332 339 360 360 362 362 362 363
334 340 343 345 350 356 359 359 360 361 362 362 362 338 333 334 353 358 359 363 363 362
333 331 338 342 344 347 351 354 358 358 360 361 361 334 331 333 351 352 357 359 360 362
334 332 331 335 339 346 350 353 355 355 360 351 361 338 327 330 352 351 349 352 357 340
334 335 338 339 340 343 342 347 354 353 356 358 357 358 325 323 355 354 353 352 351 352

GFSNIL_sfc_thetae_099.txt.gz
Theta_e
351 345 345 346 346 348 350 350 353 352 354 355 353 353 353 350 351 351 349 346 348 349
353 349 344 342 348 349 352 354 352 351 352 355 354 353 351 349 350 349 350 348 350 347
354 354 354 352 352 350 349 350 351 350 349 354 353 353 350 349 351 349 349 349 346 347
354 354 352 355 353 354 348 346 343 346 349 352 354 353 350 349 351 348 348 349 349 346
355 355 354 354 355 354 349 348 344 346 346 350 353 353 352 351 351 350 347 348 349 347
353 355 354 353 356 353 354 352 350 347 342 347 353 354 354 353 352 350 348 348 350 348
347 348 353 355 356 358 357 355 354 355 355 354 354 353 355 353 351 353 352 352 353 351
348 346 346 351 355 357 357 356 356 355 353 355 358 356 354 353 351 351 352 351 354 353
344 343 344 346 350 351 353 355 357 355 354 355 357 346 342 351 353 354 352 350 352 354
341 341 342 346 347 349 350 350 351 354 355 354 354 339 334 338 351 352 353 351 352 353
331 335 340 340 342 343 345 345 349 350 352 353 356 337 336 336 338 346 352 353 354 353
328 328 332 334 336 341 342 346 347 351 351 351 352 334 328 333 341 342 345 351 352 354
325 325 328 330 334 338 340 341 347 350 352 344 348 335 329 329 343 340 344 343 348 338
325 325 323 325 326 327 329 337 340 343 347 350 348 348 327 325 343 347 345 347 347 345

GFSNIL_sfc_thetae_102.txt.gz
Theta_e
344 342 343 344 342 343 345 346 350 351 352 350 349 350 349 349 348 347 346 344 345 344
347 343 343 343 344 343 347 349 350 350 351 352 351 351 349 346 344 347 345 346 345 344
350 347 344 342 342 347 348 350 350 345 348 350 352 351 348 346 346 346 344 345 343 344
351 352 350 350 349 347 347 348 348 347 346 349 350 349 348 346 346 347 345 345 345 345
347 352 350 350 352 351 346 345 345 344 346 348 349 349 348 345 349 347 345 345 344 345
341 346 347 350 351 351 348 345 344 341 343 345 348 350 350 349 348 346 346 345 344 345
340 344 343 346 347 349 351 347 346 345 344 342 343 349 351 351 350 350 349 346 345 346
343 345 341 341 344 349 350 352 349 349 349 350 350 352 350 351 349 347 347 350 350 350
344 341 340 341 341 345 348 351 351 350 352 350 354 345 340 348 349 348 346 346 348 351
340 341 343 342 343 344 343 343 345 350 349 348 351 338 335 338 349 350 350 349 349 348
329 332 336 337 339 341 344 344 345 346 346 348 352 337 332 335 340 341 347 350 350 349
325 326 330 331 331 336 339 340 343 347 346 344 345 332 328 332 340 341 342 345 349 351
320 322 322 324 328 330 330 335 340 340 346 342 346 332 325 328 342 341 344 344 344 334
318 318 321 320 321 319 320 325 328 333 342 341 338 341 323 322 339 344 345 345 346 345

GFSNIL_sfc_thetae_105.txt.gz
Theta_e
342 341 342 343 341 341 344 345 348 349 348 347 347 347 347 345 346 346 344 342 343 342
343 341 340 343 342 340 343 346 347 350 350 349 347 348 347 345 344 345 343 344 342 342
347 344 342 342 341 343 343 346 348 348 349 347 348 348 346 344 343 344 344 342 341 341
347 347 345 343 342 342 345 345 346 346 343 346 348 348 347 344 344 343 342 342 342 343
344 344 345 345 346 350 345 346 347 346 344 344 347 348 346 345 346 344 344 343 342 342
341 341 342 344 346 347 346 343 343 343 343 343 346 347 347 347 345 345 345 345 342 342
339 339 338 340 343 347 348 344 342 342 341 341 344 346 348 348 347 347 347 346 345 343
339 341 341 340 339 342 345 348 346 345 344 343 343 344 344 348 348 347 347 348 349 348
343 341 339 339 339 339 342 343 346 349 347 347 349 340 337 345 348 348 346 345 345 347
340 340 341 341 338 338 342 343 343 344 345 348 349 336 334 339 348 349 348 346 346 347
328 331 334 335 337 339 341 339 343 344 343 346 348 332 327 333 341 344 346 348 348 348
323 325 326 325 328 328 330 335 337 339 340 343 346 330 325 327 340 342 342 342 344 347
318 320 321 322 324 326 326 327 332 335 339 336 340 328 322 325 339 339 342 343 342 332
314 316 317 317 319 318 319 318 326 328 332 336 331 334 319 319 336 340 341 341 344 344

GFSNIL_sfc_thetae_108.txt.gz
Theta_e
343 342 344 346 346 345 348 349 352 353 352 352 350 351 349 349 351 352 351 349 350 348
343 344 344 346 347 344 347 349 351 353 353 353 352 352 352 351 351 352 351 352 350 349
344 345 344 345 345 345 346 348 350 351 353 353 352 352 352 351 349 350 350 349 349 348
349 346 344 345 345 345 345 348 347 350 350 350 349 351 351 350 350 348 349 349 349 349
347 348 349 349 348 348 348 348 347 349 349 347 350 352 351 350 351 349 348 348 348 348
342 343 345 346 348 350 350 350 348 348 348 347 348 350 352 351 351 349 350 350 349 349
341 341 341 342 343 345 349 350 348 347 346 347 348 349 351 351 351 351 351 351 351 350
341 343 342 341 341 343 345 348 351 349 348 347 345 345 347 351 352 352 351 352 353 353
344 342 341 341 341 341 342 346 347 348 350 349 348 338 335 344 348 350 351 351 353 353
334 340 342 343 340 340 343 345 346 347 348 348 351 332 330 335 348 351 352 352 351 351
327 328 329 330 330 333 338 340 341 342 343 346 348 326 325 330 343 347 350 351 354 353
323 324 325 325 325 325 328 332 334 338 341 343 340 321 323 329 345 345 346 348 348 349
318 319 319 322 323 324 326 327 334 336 337 330 336 323 318 329 342 341 343 347 348 333
312 314 315 316 318 318 318 320 319 320 322 323 321 320 312 316 334 332 335 336 339 343

GFSNIL_sfc_thetae_111.txt.gz
Theta_e
357 354 354 357 355 353 356 366 361 364 361 360 361 360 360 357 359 361 360 357 360 357
357 355 354 355 358 356 358 359 360 360 362 362 362 362 362 356 359 361 361 362 362 358
358 357 357 356 356 355 356 357 360 359 360 362 362 362 362 360 360 360 359 357 359 359
356 357 357 356 357 356 357 358 358 359 359 359 360 361 361 361 360 358 359 359 359 358
358 358 357 357 358 357 355 357 360 357 358 359 359 361 360 358 358 358 357 357 358 356
355 357 357 358 359 360 360 360 359 360 359 359 358 358 358 359 359 359 358 359 357 357
351 352 353 356 357 358 361 361 360 360 360 359 357 358 357 357 359 360 358 360 359 359
350 350 350 350 352 352 355 357 361 360 360 359 357 355 356 357 357 359 358 359 361 360
347 346 348 347 348 348 350 354 358 358 359 359 356 336 335 345 355 357 357 356 358 361
336 345 348 348 348 346 349 352 353 354 356 357 356 327 329 334 354 357 359 360 360 359
329 330 334 338 340 343 346 347 348 348 352 345 333 322 323 329 358 358 359 360 361 360
329 329 329 330 329 331 335 337 344 346 344 341 328 317 319 338 352 354 355 356 357 356
324 327 326 327 328 332 335 335 334 333 329 320 322 312 312 330 338 338 342 344 344 327
322 321 322 321 323 325 325 327 326 325 324 322 315 313 309 311 329 328 331 335 340 340

GFSNIL_sfc_thetae_114.txt.gz
Theta_e
362 355 354 357 362 354 357 354 361 360 360 363 364 363 365 360 358 362 360 359 362 356
361 360 363 359 359 357 361 356 359 359 360 361 361 364 365 357 360 363 362 361 362 357
359 360 362 364 362 362 363 363 362 361 359 361 361 363 364 360 362 362 359 356 361 361
357 358 361 360 362 363 365 365 363 364 362 361 360 362 362 362 360 361 360 361 360 360
358 359 357 358 360 362 362 364 364 364 364 360 360 362 360 358 357 359 358 358 359 358
356 357 357 359 358 360 362 362 363 365 363 363 364 363 361 361 359 358 358 359 359 358
358 358 357 359 361 362 364 361 361 361 362 362 361 363 362 361 361 360 359 358 358 358
356 358 360 360 361 361 361 360 362 361 361 362 361 359 362 361 360 360 358 358 358 359
353 353 354 355 356 358 359 360 361 360 360 360 357 336 338 349 360 360 360 359 360 361
349 347 350 351 353 352 354 356 357 359 360 358 353 323 327 337 359 361 362 364 362 359
345 337 336 345 349 352 352 354 355 355 354 347 332 317 320 330 360 361 362 362 363 363
338 331 332 334 338 343 348 348 348 345 342 339 327 313 316 333 360 359 355 351 345 353
337 337 336 335 338 341 342 342 337 331 327 321 324 311 312 324 347 349 348 346 342 328
332 333 334 335 338 339 337 337 335 331 328 323 322 314 310 312 329 334 336 339 341 340

GFSNIL_sfc_thetae_117.txt.gz
Theta_e
361 355 354 358 362 352 351 353 364 362 362 364 362 363 365 361 358 367 360 361 365 356
360 359 356 361 361 357 362 356 360 360 360 362 362 363 366 359 360 363 363 364 364 358
359 359 359 360 359 363 366 363 364 360 359 361 362 362 366 364 363 361 359 355 364 364
356 357 359 357 358 361 364 366 364 363 362 360 361 362 363 365 364 361 361 361 363 360
357 357 355 355 359 361 362 371 365 363 363 362 361 364 362 358 356 357 357 357 361 358
357 357 356 356 359 361 362 363 366 367 364 364 362 363 362 362 360 358 357 357 357 356
359 359 357 357 359 359 362 362 366 364 364 362 362 361 360 361 361 360 358 359 358 357
360 362 361 360 361 360 361 360 365 361 361 361 359 354 361 363 361 362 359 358 358 358
356 357 358 360 360 361 362 361 364 362 359 360 353 326 331 347 358 360 360 358 360 361
350 352 355 355 357 356 357 360 359 359 359 353 342 321 326 335 358 362 361 363 364 359
348 347 348 351 352 353 357 355 357 357 357 345 331 317 319 329 357 362 361 360 361 364
346 345 343 335 335 339 347 345 344 342 343 339 327 314 317 328 361 359 350 350 345 354
340 338 336 332 337 343 344 341 339 337 334 324 325 311 312 324 352 352 351 354 350 325
340 340 340 341 341 340 339 339 334 333 331 328 323 315 310 311 331 331 337 339 340 334